Regional Weather Roundup
Issued by NWS Green Bay, WI

Home | Current Version | Previous Version | Graphics & Text | Print | Product List | Glossary Off
Versions: 1 2 3 4 5 6 7 8 9 10 11 12 13 14 15 16 17 18 19 20 21 22 23 24 25 26 27 28 29 30 31 32 33 34 35 36 37 38 39 40 41 42 43 44 45 46 47 48 49 50

000
ASUS43 KGRB 251110
RWRGRB

NORTH-CENTRAL AND NORTHEAST WISCONSIN REGIONAL WEATHER ROUNDUP
NATIONAL WEATHER SERVICE GREEN BAY WI
600 AM CDT SAT APR 25 2015

WIZ005-009-010>012-018-019-251200-
NORTH CENTRAL WISCONSIN

CITY           SKY/WX    TMP DP  RH WIND       PRES   REMARKS
IRONWOOD       CLOUDY    37  28  70 E3        29.93R
MANITOWISH WTR CLOUDY    37  24  61 E3        29.94R
ARBOR VITAE    CLOUDY    37  19  48 CALM      29.93S
EAGLE RIVER    CLOUDY    35  17  49 E5        29.94R
LAND O LAKES   CLOUDY    35  21  57 CALM      29.96R
RHINELANDER    CLOUDY    35  19  52 E7        29.94R
PHILLIPS       CLOUDY    37  26  63 NE6       29.90F
ANTIGO         CLOUDY    34  20  55 E6        29.93R
TOMAHAWK       CLOUDY    37  18  47 CALM      29.92F
MERRILL        CLOUDY    37  20  50 E7        29.91F
$$

WIZ013-073-251200-
NORTHEAST WISCONSIN

CITY           SKY/WX    TMP DP  RH WIND       PRES   REMARKS
IRON MOUNTAIN  CLOUDY    33  22  63 N6        29.96S
MARINETTE      CLOUDY    36  25  64 E10       29.96S
OCONTO         CLOUDY    37  25  61 NE8       29.94S
$$

WIZ017-030-035>037-045-251200-
CENTRAL WISCONSIN

CITY           SKY/WX    TMP DP  RH WIND       PRES   REMARKS
MEDFORD        CLOUDY    36  23  59 E8        29.89S
WAUSAU         CLOUDY    37  21  52 E7        29.89F
MOSINEE        CLOUDY    37  23  56 E9        29.90F
MARSHFIELD     CLOUDY    37  27  67 E10       29.87F
WISC RAPIDS    CLOUDY    38  29  70 E10       29.89S
STEVENS POINT  CLOUDY    35  23  61 NE8       29.90S
WAUPACA        CLOUDY    40  28  62 NE5       29.91S
SHAWANO        CLOUDY    39  26  59 NE9       29.94S
CLINTONVILLE   CLOUDY    37  23  56 E8        29.92S
$$

WIZ038-039-048-051-251200-
FOX VALLEY

CITY           SKY/WX    TMP DP  RH WIND       PRES   REMARKS
NWS GREEN BAY  CLOUDY    40  25  55 NE8       29.93R
APPLETON       CLOUDY    39  23  52 NE8       29.91R
OSHKOSH        CLOUDY    40  33  76 NE8       29.88F
FOND DU LAC    CLOUDY    40  33  76 E8        29.88S
$$

WIZ022-050-052-251200-
EAST CENTRAL WISCONSIN

CITY           SKY/WX    TMP DP  RH WIND       PRES   REMARKS
STURGEON BAY   CLOUDY    36  21  55 NE7       29.96S
MANITOWOC      CLOUDY    38  30  73 NE5       29.93R
SHEBOYGAN      CLOUDY    37  33  85 NE8       29.90F
$$

LMZ563-521-522-541>543-251200-
LAKESHORE

STATION/POSITION TIME  TEMP    WIND        PRES    VSBY  WAVE
                       AIR SEA DIR/SP/G                  HT/PER
                 (UTC) (F)     (DEG/KT/KT) (MB)    (MI)  (FT/S)
SHEBOYGAN LKSHOR 1100   38      20/ 14/ 16 1013.5F
KEWAUNEE LKSHORE 1100   37      60/  7/ 12 1012.8R
NORTHPORT PIER   1100   35      80/  8/ 11 1015.2S
SISTER BAY LKSHO 1100   36     120/  8/ 13   N/A
CHAMBERS ISLAND  1100   36      50/ 10/ 12 1015.2R
MENOMINEE LKSHOR 1100   37      40/ 12/ 15 1015.4R
$$


USA.gov is the U.S. government's official web portal to all federal, state and local government web resources and services.